FANDOM


<?xml version="1.0" encoding="UTF-8"?>

<event id="31" eventname="Summerbreeze 2012" startpageid="80" year="2012" update="2012-07-21" location="999">

<locations>
    <location id="999" type="real" latitude="49.068897" longitude="10.323972"/>
    <location id="1000" type="virtual" referenzLocationId="999" name="MAIN STAGE" color="32CD32"/>
    <location id="1001" type="virtual" referenzLocationId="999" name="PAIN STAGE" color="20B2AA"/>
    <location id="1002" type="virtual" referenzLocationId="999" name="PARTY TENT" color="CD3333"/>
    <location id="1003" type="virtual" referenzLocationId="999" name="CAMEL STAGE" color="CD3333"/>
</locations>

<pages>
<page id="80" type="form" title="Summerbreeze 2012" >
  <links>
  </links>
  <content>
    <string value="Live On Stage" link="-3"/>
    <string value="Programm" link="-5" />
    <string value="Favoriten" link="-12"/>
    <string value="Suchen" link="-14"/>
    <string value="Mehr" link="19"/>
   <string value="Hat sich der Spielplan geändert oder die Zeiten der Events stimmen nicht mehr?" link="-1" />
   <string value="Findest du dein Festival hier nicht oder über deine Lieblingsband fehlen noch Infos? " link="-1" />
   <string value="Mach Mit im OFG Wiki" link="25"/>
    <string value="Exit" link="-2" />
  </content>
</page>

<page id="19" type="form" title="Mehr" >

 <links>	  
     <next id="80"/>
 </links>
 <content>
    <string value="Online Update" link="44" /> 
    <web value="Homepage[1]" />
    <string value="Veranstaltung wechseln" link="45"/>
    <string value="About this App" link="20"/>
    <string value="Zurück" link="80"/>
 </content>

</page>

</pages>

<act id="1" name="TASTERS" starttime="2012-08-15-02-25" endtime="2012-08-15-03-00" day="2012-08-15" location="1002" image="-1" link="-1" />
<act id="2" name="GRAVEWORM" starttime="2012-08-15-01-20" endtime="2012-08-15-02-05" day="2012-08-15" location="1002" image="-1" link="-1" />
<act id="3" name="TANKARD" starttime="2012-08-15-00-00" endtime="2012-08-15-01-00" day="2012-08-15" location="1002" image="-1" link="-1" />
<act id="4" name="RAGE" starttime="2012-08-15-22-40" endtime="2012-08-15-23-40" day="2012-08-15" location="1002" image="-1" link="-1" />
<act id="5" name="BULLET" starttime="2012-08-15-21-20" endtime="2012-08-15-22-20" day="2012-08-15" location="1002" image="-1" link="-1" />
<act id="6" name="MUNICIPAL WASTE" starttime="2012-08-15-20-00" endtime="2012-08-15-21-00" day="2012-08-15" location="1002" image="-1" link="-1" />
<act id="7" name="BUFFET OF FATE" starttime="2012-08-15-19-10" endtime="2012-08-15-19-35" day="2012-08-15" location="1002" image="-1" link="-1" />
<act id="8" name="GOODBYE TO GRAVITY" starttime="2012-08-15-18-20" endtime="2012-08-15-18-45" day="2012-08-15" location="1002" image="-1" link="-1" />
<act id="9" name="AMOEBA" starttime="2012-08-15-17-30" endtime="2012-08-15-17-55" day="2012-08-15" location="1002" image="-1" link="-1" />
<act id="10" name="OBSCURE SPHINX" starttime="2012-08-15-16-40" endtime="2012-08-15-17-05" day="2012-08-15" location="1002" image="-1" link="-1" />
<act id="11" name="WITHOUT WORDS" starttime="2012-08-15-15-50" endtime="2012-08-15-16-15" day="2012-08-15" location="1002" image="-1" link="-1" />
<act id="12" name="ARSIRIUS" starttime="2012-08-15-15-00" endtime="2012-08-15-15-25" day="2012-08-15" location="1002" image="-1" link="-1" />
<act id="13" name="DEVIL’S TRAIN" starttime="2012-08-15-02-05" endtime="2012-08-15-02-25" day="2012-08-15" location="1003" image="-1" link="-1" />
<act id="14" name="DEVIL’S TRAIN" starttime="2012-08-15-01-00" endtime="2012-08-15-01-20" day="2012-08-15" location="1003" image="-1" link="-1" />
<act id="15" name="DEVIL’S TRAIN" starttime="2012-08-15-23-40" endtime="2012-08-15-00-00" day="2012-08-15" location="1003" image="-1" link="-1" />
<act id="16" name="DEVIL’S TRAIN" starttime="2012-08-15-22-20" endtime="2012-08-15-22-40" day="2012-08-15" location="1003" image="-1" link="-1" />
<act id="17" name="DEVIL’S TRAIN" starttime="2012-08-15-21-00" endtime="2012-08-15-21-20" day="2012-08-15" location="1003" image="-1" link="-1" />
<act id="18" name="BLASMUSIK ILLENSCHWANG" starttime="2012-08-15-14-00" endtime="2012-08-15-15-00" day="2012-08-15" location="1003" image="-1" link="-1" />
<act id="19" name="SUBWAY TO SALLY" starttime="2012-08-16-22-40" endtime="2012-08-16-23-55" day="2012-08-16" location="1000" image="-1" link="-1" />
<act id="20" name="BEHEMOTH" starttime="2012-08-16-20-30" endtime="2012-08-16-21-30" day="2012-08-16" location="1000" image="-1" link="-1" />
<act id="21" name="ICED EARTH" starttime="2012-08-16-18-20" endtime="2012-08-16-19-20" day="2012-08-16" location="1000" image="-1" link="-1" />
<act id="22" name="EPICA" starttime="2012-08-16-16-35" endtime="2012-08-16-17-25" day="2012-08-16" location="1000" image="-1" link="-1" />
<act id="23" name="DARKEST HOUR" starttime="2012-08-16-14-55" endtime="2012-08-16-15-40" day="2012-08-16" location="1000" image="-1" link="-1" />
<act id="24" name="BE LAKOR" starttime="2012-08-16-13-30" endtime="2012-08-16-14-05" day="2012-08-16" location="1000" image="-1" link="-1" />
<act id="25" name="DEATHSTARS" starttime="2012-08-16-00-00" endtime="2012-08-16-01-00" day="2012-08-16" location="1001" image="-1" link="-1" />
<act id="26" name="ELUVEITIE" starttime="2012-08-16-21-35" endtime="2012-08-16-22-35" day="2012-08-16" location="1001" image="-1" link="-1" />
<act id="27" name="DIE APOKALYPTISCHEN REITER" starttime="2012-08-16-19-25" endtime="2012-08-16-20-25" day="2012-08-16" location="1001" image="-1" link="-1" />
<act id="28" name="NAPALM DEATH" starttime="2012-08-16-17-30" endtime="2012-08-16-18-15" day="2012-08-16" location="1001" image="-1" link="-1" />
<act id="29" name="EVERY TIME I DIE" starttime="2012-08-16-15-45" endtime="2012-08-16-16-30" day="2012-08-16" location="1001" image="-1" link="-1" />
<act id="30" name="MANEGARM" starttime="2012-08-16-14-10" endtime="2012-08-16-14-50" day="2012-08-16" location="1001" image="-1" link="-1" />
<act id="31" name="NEW BLOOD AWARD - CEREMONY" starttime="2012-08-16-13-00" endtime="2012-08-16-13-25" day="2012-08-16" location="1001" image="-1" link="-1" />
<act id="32" name="NEW BLOOD AWARD - WINNER" starttime="2012-08-16-12-45" endtime="2012-08-16-13-00" day="2012-08-16" location="1001" image="-1" link="-1" />
<act id="33" name="THE ROTTED" starttime="2012-08-16-03-20" endtime="2012-08-16-04-00" day="2012-08-16" location="1002" image="-1" link="-1" />
<act id="34" name="FARSOT" starttime="2012-08-16-02-20" endtime="2012-08-16-03-00" day="2012-08-16" location="1002" image="-1" link="-1" />
<act id="35" name="IN SOLITUDE" starttime="2012-08-16-01-15" endtime="2012-08-16-02-00" day="2012-08-16" location="1002" image="-1" link="-1" />
<act id="36" name="EXCREMENTORY GRINDFUCKERS" starttime="2012-08-16-00-05" endtime="2012-08-16-00-55" day="2012-08-16" location="1002" image="-1" link="-1" />
<act id="37" name="GHOST BRIGADE" starttime="2012-08-16-23-00" endtime="2012-08-16-23-45" day="2012-08-16" location="1002" image="-1" link="-1" />
<act id="38" name="DIE KASSIERER" starttime="2012-08-16-21-55" endtime="2012-08-16-22-40" day="2012-08-16" location="1002" image="-1" link="-1" />
<act id="39" name="WE BUTTER THE BREAD WITH BUTTER" starttime="2012-08-16-20-50" endtime="2012-08-16-21-35" day="2012-08-16" location="1002" image="-1" link="-1" />
<act id="40" name="NORMA JEAN" starttime="2012-08-16-19-50" endtime="2012-08-16-20-30" day="2012-08-16" location="1002" image="-1" link="-1" />
<act id="41" name="BORN FROM PAIN" starttime="2012-08-16-18-50" endtime="2012-08-16-19-30" day="2012-08-16" location="1002" image="-1" link="-1" />
<act id="42" name="ALCEST" starttime="2012-08-16-17-50" endtime="2012-08-16-18-30" day="2012-08-16" location="1002" image="-1" link="-1" />
<act id="43" name="PETER PAN SPEEDROCK" starttime="2012-08-16-16-50" endtime="2012-08-16-17-30" day="2012-08-16" location="1002" image="-1" link="-1" />
<act id="44" name="AGRYPNIE" starttime="2012-08-16-15-55" endtime="2012-08-16-16-30" day="2012-08-16" location="1002" image="-1" link="-1" />
<act id="45" name="GLORIOR BELLI" starttime="2012-08-16-15-00" endtime="2012-08-16-15-35" day="2012-08-16" location="1002" image="-1" link="-1" />
<act id="46" name="SKI’S COUNTRY TRASH" starttime="2012-08-16-02-00" endtime="2012-08-16-02-20" day="2012-08-16" location="1003" image="-1" link="-1" />
<act id="47" name="SKI’S COUNTRY TRASH" starttime="2012-08-16-00-55" endtime="2012-08-16-01-15" day="2012-08-16" location="1003" image="-1" link="-1" />
<act id="48" name="SKI’S COUNTRY TRASH" starttime="2012-08-16-23-45" endtime="2012-08-16-00-05" day="2012-08-16" location="1003" image="-1" link="-1" />
<act id="49" name="SKI’S COUNTRY TRASH" starttime="2012-08-16-22-40" endtime="2012-08-16-23-00" day="2012-08-16" location="1003" image="-1" link="-1" />
<act id="50" name="SKI’S COUNTRY TRASH" starttime="2012-08-16-21-35" endtime="2012-08-16-21-55" day="2012-08-16" location="1003" image="-1" link="-1" />
<act id="51" name="STIER" starttime="2012-08-16-20-30" endtime="2012-08-16-20-50" day="2012-08-16" location="1003" image="-1" link="-1" />
<act id="52" name="STIER" starttime="2012-08-16-19-30" endtime="2012-08-16-19-50" day="2012-08-16" location="1003" image="-1" link="-1" />
<act id="53" name="STIER" starttime="2012-08-16-18-30" endtime="2012-08-16-18-50" day="2012-08-16" location="1003" image="-1" link="-1" />
<act id="54" name="STIER" starttime="2012-08-16-17-30" endtime="2012-08-16-17-50" day="2012-08-16" location="1003" image="-1" link="-1" />
<act id="55" name="STIER" starttime="2012-08-16-16-30" endtime="2012-08-16-16-50" day="2012-08-16" location="1003" image="-1" link="-1" />
<act id="56" name="IMMORTAL" starttime="2012-08-17-22-40" endtime="2012-08-17-23-55" day="2012-08-17" location="1000" image="-1" link="-1" />
<act id="57" name="WITHIN TEMPTATION" starttime="2012-08-17-20-15" endtime="2012-08-17-21-30" day="2012-08-17" location="1000" image="-1" link="-1" />
<act id="58" name="JASTA VS WINDSTEIN" starttime="2012-08-17-18-05" endtime="2012-08-17-19-05" day="2012-08-17" location="1000" image="-1" link="-1" />
<act id="59" name="UNEARTH" starttime="2012-08-17-16-05" endtime="2012-08-17-17-05" day="2012-08-17" location="1000" image="-1" link="-1" />
<act id="60" name="CROWBAR" starttime="2012-08-17-14-25" endtime="2012-08-17-15-10" day="2012-08-17" location="1000" image="-1" link="-1" />
<act id="61" name="DEW-SCENTED" starttime="2012-08-17-12-50" endtime="2012-08-17-13-30" day="2012-08-17" location="1000" image="-1" link="-1" />
<act id="62" name="ROTERFELD" starttime="2012-08-17-11-35" endtime="2012-08-17-12-05" day="2012-08-17" location="1000" image="-1" link="-1" />
<act id="63" name="CORVUS CORAX" starttime="2012-08-17-00-00" endtime="2012-08-17-01-00" day="2012-08-17" location="1001" image="-1" link="-1" />
<act id="64" name="DARK TRANQUILLITY" starttime="2012-08-17-21-35" endtime="2012-08-17-22-35" day="2012-08-17" location="1001" image="-1" link="-1" />
<act id="65" name="SIX FEET UNDER" starttime="2012-08-17-19-10" endtime="2012-08-17-20-00" day="2012-08-17" location="1001" image="-1" link="-1" />
<act id="66" name="NILE" starttime="2012-08-17-17-10" endtime="2012-08-17-18-00" day="2012-08-17" location="1001" image="-1" link="-1" />
<act id="67" name="MONO INC" starttime="2012-08-17-15-15" endtime="2012-08-17-16-00" day="2012-08-17" location="1001" image="-1" link="-1" />
<act id="68" name="MYSTIC PROPHECY" starttime="2012-08-17-13-35" endtime="2012-08-17-14-20" day="2012-08-17" location="1001" image="-1" link="-1" />
<act id="69" name="BLEED FROM WITHIN" starttime="2012-08-17-12-10" endtime="2012-08-17-12-45" day="2012-08-17" location="1001" image="-1" link="-1" />
<act id="70" name="THE FORESHADOWING" starttime="2012-08-17-11-00" endtime="2012-08-17-11-30" day="2012-08-17" location="1001" image="-1" link="-1" />
<act id="71" name="AHAB" starttime="2012-08-17-03-20" endtime="2012-08-17-04-00" day="2012-08-17" location="1002" image="-1" link="-1" />
<act id="72" name="MENHIR" starttime="2012-08-17-02-20" endtime="2012-08-17-03-00" day="2012-08-17" location="1002" image="-1" link="-1" />
<act id="73" name="EISREGEN" starttime="2012-08-17-01-15" endtime="2012-08-17-02-00" day="2012-08-17" location="1002" image="-1" link="-1" />
<act id="74" name="MORGOTH" starttime="2012-08-17-00-05" endtime="2012-08-17-00-55" day="2012-08-17" location="1002" image="-1" link="-1" />
<act id="75" name="TERROR" starttime="2012-08-17-23-00" endtime="2012-08-17-23-45" day="2012-08-17" location="1002" image="-1" link="-1" />
<act id="76" name="KRISIUN" starttime="2012-08-17-21-55" endtime="2012-08-17-22-40" day="2012-08-17" location="1002" image="-1" link="-1" />
<act id="77" name="INSOMNIUM" starttime="2012-08-17-20-50" endtime="2012-08-17-21-35" day="2012-08-17" location="1002" image="-1" link="-1" />
<act id="78" name="BEFORE THE DAWN" starttime="2012-08-17-19-50" endtime="2012-08-17-20-30" day="2012-08-17" location="1002" image="-1" link="-1" />
<act id="79" name="HEIDEVOLK" starttime="2012-08-17-18-50" endtime="2012-08-17-19-30" day="2012-08-17" location="1002" image="-1" link="-1" />
<act id="80" name="BLACK SUN AEON" starttime="2012-08-17-17-50" endtime="2012-08-17-18-30" day="2012-08-17" location="1002" image="-1" link="-1" />
<act id="81" name="TOXIC HOLOCAUST" starttime="2012-08-17-16-50" endtime="2012-08-17-17-30" day="2012-08-17" location="1002" image="-1" link="-1" />
<act id="82" name="HELHEIM" starttime="2012-08-17-15-55" endtime="2012-08-17-16-30" day="2012-08-17" location="1002" image="-1" link="-1" />
<act id="83" name="ESKIMO CALLBOY" starttime="2012-08-17-15-00" endtime="2012-08-17-15-35" day="2012-08-17" location="1002" image="-1" link="-1" />
<act id="84" name="OHRENFEINDT" starttime="2012-08-17-02-00" endtime="2012-08-17-02-20" day="2012-08-17" location="1003" image="-1" link="-1" />
<act id="85" name="OHRENFEINDT" starttime="2012-08-17-00-55" endtime="2012-08-17-01-15" day="2012-08-17" location="1003" image="-1" link="-1" />
<act id="86" name="OHRENFEINDT" starttime="2012-08-17-23-45" endtime="2012-08-17-00-05" day="2012-08-17" location="1003" image="-1" link="-1" />
<act id="87" name="OHRENFEINDT" starttime="2012-08-17-22-40" endtime="2012-08-17-23-00" day="2012-08-17" location="1003" image="-1" link="-1" />
<act id="88" name="OHRENFEINDT" starttime="2012-08-17-21-35" endtime="2012-08-17-21-55" day="2012-08-17" location="1003" image="-1" link="-1" />
<act id="89" name="BLACK SHERIFF" starttime="2012-08-17-20-30" endtime="2012-08-17-20-50" day="2012-08-17" location="1003" image="-1" link="-1" />
<act id="90" name="BLACK SHERIFF" starttime="2012-08-17-19-30" endtime="2012-08-17-19-50" day="2012-08-17" location="1003" image="-1" link="-1" />
<act id="91" name="BLACK SHERIFF" starttime="2012-08-17-18-30" endtime="2012-08-17-18-50" day="2012-08-17" location="1003" image="-1" link="-1" />
<act id="92" name="BLACK SHERIFF" starttime="2012-08-17-17-30" endtime="2012-08-17-17-50" day="2012-08-17" location="1003" image="-1" link="-1" />
<act id="93" name="BLACK SHERIFF" starttime="2012-08-17-16-30" endtime="2012-08-17-16-50" day="2012-08-17" location="1003" image="-1" link="-1" />
<act id="94" name="AMON AMARTH" starttime="2012-08-18-22-40" endtime="2012-08-18-23-55" day="2012-08-18" location="1000" image="-1" link="-1" />
<act id="95" name="SICK OF IT ALL" starttime="2012-08-18-20-15" endtime="2012-08-18-21-30" day="2012-08-18" location="1000" image="-1" link="-1" />
<act id="96" name="PARADISE LOST" starttime="2012-08-18-18-05" endtime="2012-08-18-19-05" day="2012-08-18" location="1000" image="-1" link="-1" />
<act id="97" name="SEPULTURA" starttime="2012-08-18-16-05" endtime="2012-08-18-17-05" day="2012-08-18" location="1000" image="-1" link="-1" />
<act id="98" name="NAGLFAR " starttime="2012-08-18-14-25" endtime="2012-08-18-15-10" day="2012-08-18" location="1000" image="-1" link="-1" />
<act id="99" name="THE UNGUIDED" starttime="2012-08-18-12-50" endtime="2012-08-18-13-30" day="2012-08-18" location="1000" image="-1" link="-1" />
<act id="100" name="NIGHT IN GALES" starttime="2012-08-18-11-35" endtime="2012-08-18-12-05" day="2012-08-18" location="1000" image="-1" link="-1" />
<act id="101" name="KATATONIA" starttime="2012-08-18-00-00" endtime="2012-08-18-01-00" day="2012-08-18" location="1001" image="-1" link="-1" />
<act id="102" name="ASP" starttime="2012-08-18-21-35" endtime="2012-08-18-22-35" day="2012-08-18" location="1001" image="-1" link="-1" />
<act id="103" name="OOMPH" starttime="2012-08-18-19-10" endtime="2012-08-18-20-10" day="2012-08-18" location="1001" image="-1" link="-1" />
<act id="104" name="LACUNA COIL" starttime="2012-08-18-17-10" endtime="2012-08-18-18-00" day="2012-08-18" location="1001" image="-1" link="-1" />
<act id="105" name="UNLEASHED" starttime="2012-08-18-15-15" endtime="2012-08-18-16-00" day="2012-08-18" location="1001" image="-1" link="-1" />
<act id="106" name="TANZWUT" starttime="2012-08-18-13-35" endtime="2012-08-18-14-20" day="2012-08-18" location="1001" image="-1" link="-1" />
<act id="107" name="BETONTOD" starttime="2012-08-18-12-10" endtime="2012-08-18-12-45" day="2012-08-18" location="1001" image="-1" link="-1" />
<act id="108" name="WHILE SHE SLEEPS" starttime="2012-08-18-11-00" endtime="2012-08-18-11-30" day="2012-08-18" location="1001" image="-1" link="-1" />
<act id="109" name="HATESPHERE" starttime="2012-08-18-03-20" endtime="2012-08-18-04-00" day="2012-08-18" location="1002" image="-1" link="-1" />
<act id="110" name="ENTRAILS" starttime="2012-08-18-02-20" endtime="2012-08-18-03-00" day="2012-08-18" location="1002" image="-1" link="-1" />
<act id="111" name="CIRCUS INSANE" starttime="2012-08-18-01-15" endtime="2012-08-18-02-00" day="2012-08-18" location="1002" image="-1" link="-1" />
<act id="112" name="ANAAL NATHRAKH" starttime="2012-08-18-00-05" endtime="2012-08-18-00-55" day="2012-08-18" location="1002" image="-1" link="-1" />
<act id="113" name="DEEZ NUTS" starttime="2012-08-18-23-00" endtime="2012-08-18-23-45" day="2012-08-18" location="1002" image="-1" link="-1" />
<act id="114" name="VALLENFYRE" starttime="2012-08-18-21-55" endtime="2012-08-18-22-40" day="2012-08-18" location="1002" image="-1" link="-1" />
<act id="115" name="ASPHYX" starttime="2012-08-18-20-50" endtime="2012-08-18-21-35" day="2012-08-18" location="1002" image="-1" link="-1" />
<act id="116" name="SHINING" starttime="2012-08-18-19-50" endtime="2012-08-18-20-30" day="2012-08-18" location="1002" image="-1" link="-1" />
<act id="117" name="NIFELHEIM" starttime="2012-08-18-18-50" endtime="2012-08-18-19-30" day="2012-08-18" location="1002" image="-1" link="-1" />
<act id="118" name="CATTLE DECAPITATION" starttime="2012-08-18-17-50" endtime="2012-08-18-18-30" day="2012-08-18" location="1002" image="-1" link="-1" />
<act id="119" name="INCANTATION" starttime="2012-08-18-16-50" endtime="2012-08-18-17-30" day="2012-08-18" location="1002" image="-1" link="-1" />
<act id="120" name="DESASTER" starttime="2012-08-18-15-55" endtime="2012-08-18-16-30" day="2012-08-18" location="1002" image="-1" link="-1" />
<act id="121" name="AUDREY HORNE" starttime="2012-08-18-15-00" endtime="2012-08-18-15-35" day="2012-08-18" location="1002" image="-1" link="-1" />
<act id="122" name="MAMBO KURT" starttime="2012-08-18-02-00" endtime="2012-08-18-02-20" day="2012-08-18" location="1003" image="-1" link="-1" />
<act id="123" name="MAMBO KURT" starttime="2012-08-18-00-55" endtime="2012-08-18-01-15" day="2012-08-18" location="1003" image="-1" link="-1" />
<act id="124" name="MAMBO KURT" starttime="2012-08-18-23-45" endtime="2012-08-18-00-05" day="2012-08-18" location="1003" image="-1" link="-1" />
<act id="125" name="MAMBO KURT" starttime="2012-08-18-22-40" endtime="2012-08-18-23-00" day="2012-08-18" location="1003" image="-1" link="-1" />
<act id="126" name="MAMBO KURT" starttime="2012-08-18-21-35" endtime="2012-08-18-21-55" day="2012-08-18" location="1003" image="-1" link="-1" />
<act id="127" name="NITROGODS" starttime="2012-08-18-20-30" endtime="2012-08-18-20-50" day="2012-08-18" location="1003" image="-1" link="-1" />
<act id="128" name="NITROGODS" starttime="2012-08-18-19-30" endtime="2012-08-18-19-50" day="2012-08-18" location="1003" image="-1" link="-1" />
<act id="129" name="NITROGODS" starttime="2012-08-18-18-30" endtime="2012-08-18-18-50" day="2012-08-18" location="1003" image="-1" link="-1" />
<act id="130" name="NITROGODS" starttime="2012-08-18-17-30" endtime="2012-08-18-17-50" day="2012-08-18" location="1003" image="-1" link="-1" />
<act id="131" name="NITROGODS" starttime="2012-08-18-16-30" endtime="2012-08-18-16-50" day="2012-08-18" location="1003" image="-1" link="-1" />
<act id="132" name="BEMBERS" starttime="2012-08-18-14-00" endtime="2012-08-18-14-45" day="2012-08-18" location="1003" image="-1" link="-1" />
</event>